www.pogodaiklimat.ru

Погода и климат >> Архив погоды >> Новая Зеландия >> Маяк Puysegur Point


ПОГОДА на Маяке Puysegur Point

  • Прогноз погоды на Маяке Puysegur Point
  • Монитор погоды на Маяке Puysegur Point

АРХИВ ПОГОДЫ на Маяке Puysegur Point

Время (UTC), дата Ветер
(напр.,м/с)
 
Видим.   Явления Облачность Т
(С)
Тd
(С)
f
(%)
Тe
(С)
Тes
(С)
Комфортность P
(гПа)
Po
(гПа)
Тmin
(С)
Tmax
(С)
R
(мм)
R24
(мм)
S
(см)
03 12.08 СЗ 4 н/о н/о +8.1 +3.9 75 +5 +5 994.1 988.8
06 12.08 З 5 н/о н/о +7.6 +3.5 75 +4 +4 994.3 989.0 0.8
09 12.08 СЗ 5 н/о н/о +7.3 +5.0 85 +3 +3 994.9 989.6
12 12.08 СЗ 9 н/о н/о +8.5 +4.6 76 +4 +4 994.5 989.2 +9.5 0.8
15 12.08 З 7 н/о н/о +8.5 +5.3 80 +4 +4 994.2 988.9
18 12.08 З 10 н/о н/о +7.6 +4.0 78 +2 +2 994.4 989.1 0.4
21 12.08 З 9 н/о н/о +8.6 +4.9 78 +4 +4 996.0 990.7
00 13.08 З 9 н/о н/о +8.5 +5.2 80 +4 +4 997.1 991.8 +6.6 4
03 13.08 ЮЗ 10 н/о н/о +6.3 +3.9 85 0 0 999.0 993.7
06 13.08 ЮЗ 6 н/о н/о +6.3 +3.2 81 +2 +2 1001.5 996.2 2
09 13.08 ЮЗ 7 н/о н/о +5.9 +3.0 82 +1 +1 1004.2 998.8
12 13.08 Ю 7 н/о н/о +5.8 +2.9 82 +1 +1 1007.1 1001.7 +9.0 2
15 13.08 Ю 11 н/о н/о +6.6 +2.8 77 +1 +1 1009.2 1003.8
18 13.08 Ю 8 н/о н/о +7.1 +2.1 70 +2 +2 1011.0 1005.6 2
21 13.08 Ю 9 н/о н/о +7.3 +1.8 68 +2 +2 1014.0 1008.6
00 14.08 ЮЗ 4 н/о н/о +7.9 +3.5 74 +5 +5 1015.9 1010.5 +5.2 5
03 14.08 ЮЗ 4 н/о н/о +8.8 +4.4 74 +6 +6 1015.6 1010.2
06 14.08 СЗ 5 н/о н/о +8.7 +5.9 83 +5 +5 1016.0 1010.6 0.4
09 14.08 СЗ 6 н/о н/о +9.0 +6.2 83 +5 +5 1016.4 1011.0
12 14.08 З 5 н/о н/о +8.9 +7.0 88 +5 +5 1016.1 1010.7 +9.5 3
15 14.08 З 6 н/о н/о +7.6 +5.6 87 +3 +3 1016.9 1011.5
18 14.08 С 8 н/о н/о +8.1 +6.2 88 +3 +3 1015.9 1010.5 0.4
21 14.08 СЗ 8 н/о н/о +9.8 +7.3 84 +6 +6 1016.6 1011.2
00 15.08 СЗ 12 н/о н/о +10.1 +7.8 86 +5 +5 1016.1 1010.7 +7.5 6
03 15.08 СЗ 11 н/о н/о +10.4 +7.0 79 +6 +6 1014.6 1009.3
06 15.08 С 13 н/о н/о +10.2 +7.4 83 +5 +5 1012.8 1007.5 2
09 15.08 С 16 н/о н/о +10.3 +7.3 82 +5 +5 1010.8 1005.5
12 15.08 СЗ 19 н/о н/о +9.7 +8.0 89 +4 +4 1008.4 1003.1 +10.8 5
15 15.08 СЗ 21 н/о н/о +10.7 +8.0 83 +5 +5 1005.9 1000.6
18 15.08 С 19 н/о н/о +10.4 +8.4 87 +5 +5 1003.8 998.5 6
21 15.08 СЗ 15 н/о н/о +10.9 +9.0 88 +6 +6 1003.8 998.5
00 16.08 СЗ 19 н/о н/о +11.3 +8.9 85 +6 +6 1001.6 996.3 +8.6 18
03 16.08 СЗ 9 н/о н/о +10.6 +8.4 86 +6 +6 1000.8 995.5
06 16.08 З 7 н/о н/о +9.8 +7.1 83 +6 +6 1001.0 995.7 4
09 16.08 З 3 н/о н/о +8.8 +6.2 84 +7 +7 1001.8 996.5
12 16.08 З 4 н/о н/о +8.0 +5.2 82 +5 +5 1003.1 997.8 +11.5 2
15 16.08 ЮВ 8 н/о н/о +6.7 +4.5 86 +2 +2 1005.6 1000.2
18 16.08 ЮВ 10 н/о н/о +7.1 +1.1 66 +2 +2 1009.1 1003.7 2
21 16.08 Ю 9 н/о н/о +6.9 +1.2 67 +2 +2 1012.9 1007.5
00 17.08 Ю 4 н/о н/о +7.5 +3.3 75 +4 +4 1015.4 1010.0
03 17.08 Ю 5 н/о н/о +8.3 +2.3 66 +5 +5 1016.6 1011.2
06 17.08 Ю 6 н/о н/о +7.6 +1.7 66 +4 +4 1019.4 1014.0
09 17.08 ЮВ 4 н/о н/о +7.2 +0.2 61 +4 +4 1022.0 1016.6
12 17.08 ЮВ 3 н/о н/о +5.3 +1.9 79 +2 +2 1023.8 1018.3 0.8
15 17.08 СВ 3 н/о н/о +3.8 +1.5 85 -0 -0 1024.4 1018.9
18 17.08 В 3 н/о н/о +4.1 +1.7 84 +1 +1 1024.8 1019.3
21 17.08 В 3 н/о н/о +5.3 +2.0 79 +2 +2 1025.4 1019.9
00 18.08 ЮВ 4 н/о н/о +8.9 +2.6 65 +6 +6 1025.4 1020.0 +3.3 0.8
03 18.08 Ю 2 н/о н/о +9.1 +2.3 62 +8 +8 1024.3 1018.9
06 18.08 СВ 4 н/о н/о +7.4 +2.1 69 +4 +4 1023.4 1018.0
09 18.08 С 5 н/о н/о +5.6 +2.1 78 +1 +1 1024.1 1018.6
12 18.08 С 6 н/о н/о +7.1 +2.1 70 +3 +3 1022.4 1017.0 +10.0
15 18.08 С 8 н/о н/о +9.3 +2.2 61 +5 +5 1020.6 1015.2
18 18.08 С 14 н/о н/о +10.1 +4.1 66 +5 +5 1017.8 1012.4
21 18.08 С 7 н/о н/о +10.3 +3.2 61 +7 +7 1016.4 1011.1
00 19.08 С 10 н/о н/о +12.8 +3.8 54 +10 +10 1014.0 1008.7 +5.0

 

Местоположение метеостанции Маяк Puysegur Point (Новая Зеландия): широта -46.16 долгота 166.63 высота над уровнем моря 44 м.

В архиве по умолчанию представлена погода на Маяке Puysegur Point за последнюю неделю. Архивные данные за месяц целиком и за предыдущие месяцы, начиная с января 2011 года, Вы можете получить, выбрав интересующий диапазон дат из раскрывающегося списка и нажав кнопку "Ввод!".


*Определитесь, кто Вы:
робот инопланетянин человек

Внимание! Время в таблицах - всемирное. Для получения местного времени необходимо прибавить поправку, которая равна 12 ч.

Смотрите также архив погоды в соседних городах и на ближайших метеорологических станциях:

Погода на Острове Секретари (Новая Зеландия) (107 км)
Погода в Инверкаргилле (Новая Зеландия) (134 км)
Погода на Мысе Юго-западный (Новая Зеландия) (137 км)
Погода в Квинстауне (Новая Зеландия) (208 км)
Погода в Данидине (Новая Зеландия) (275 км)
Погода в Тара Хилс (Новая Зеландия) (313 км)
Погода в Хаасте (Новая Зеландия) (316 км)
Погода в Тимару (Новая Зеландия) (415 км)
Погода на Острове Эндерби (Новая Зеландия) (481 км)
Погода в Хокитике (Новая Зеландия) (516 км)

Пояснения к столбцам:

Ветер - указаны скорость ветра в м/с - средняя за 10 мин, порывы в срок и между сроками (в фигурных скобках) и направление, откуда дует ветер: С - северный, СВ - северо-восточный, В - восточный, ЮВ - юго-восточный, Ю - южный, ЮЗ - юго-западный, З - западный, СЗ - северо-западный.
Видимость - горизонтальная дальность видимости в метрах или километрах. При видимости от 1 до 10 км при отсутствии осадков обычно наблюдается дымка, при ухудшении видимости до 1 км и менее - туман. В сухую погоду видимость может ухудшаться дымом, пылью или мглою.
Явления - указаны атмосферные явления, наблюдавшиеся в срок или в последний час перед сроком; фигурными скобками обозначены явления, наблюдавшиеся между сроками (за 1-3 часа до срока); квадратными скобками обозначены град или гололедные отложения с указанием их диаметра в мм.
Облачность - указаны через наклонную черту общая и нижняя облачность в баллах и высота нижней границы облаков в метрах; квадратными скобками обозначены формы облаков: Ci - перистые, Cs - перисто-слоистые, Cc - перисто-кучевые, Ac - высококучевые, As - высокослоистые, Sc - слоисто-кучевые, Ns - слоисто-дождевые, Cu - кучевые, Cb - кучево-дождевые. Подробнее классификацию облаков см. в Атласе облаков (PDF).
T - Температура воздуха - температура, измеренная на высоте 2 м над землей.
Td - Температура точки росы - температура, при понижении до которой содержащийся в воздухе водяной пар достигнет насыщения.
f - Относительная влажность воздуха - влажноcть воздуха, измеренная на высоте 2 м над землей.
Te - Эффективная температура - температура, которую ощущает одетый по сезону человек в тени. Характеристика душности погоды. При расчете учитывается влияние влажности воздуха и скорости ветра на теплоощущения человека.
Tes - Эффективная температура на солнце - температура, которую ощущает человек, с поправкой на солнечный нагрев. Характеристика знойности погоды. Зависит от высоты солнца над горизонтом, облачности и скорости ветра. Ночью, в пасмурную погоду, а также при ветре 12 м/с и более поправка равна нулю.
P - Атмосферное давление - приведенное к уровню моря атмосферное давление.
Po - Атмосферное давление - измеренное на уровне метеостанции атмосферное давление.
Tmin - Минимальная температура - минимум температуры воздуха на высоте 2 м над землей.
Tmax - Максимальная температура - максимум температуры воздуха на высоте 2 м над землей.
R - Количество осадков - Количество выпавших осадков за период времени, мм. При наведении курсора мыши на число - период времени, за который выпало указанное количество осадков.
R24 - Количество осадков - Количество выпавших осадков за 24 часа, мм.
S - Снежный покров - Высота снежного покрова, см. При наведении курсора мыши на число - состояние снежного покрова и степень покрытия местности в баллах.